| time (UTC) | temp F | wind direction | speed knots | gust knots | rain 1hr in | rain 24hr in | rain mn in | humidity % | barometer mb |
| 20260506175710 | 80 | 145 | 6.1 | 0.0 | 0.00 | 0.00 | 0.00 | 83 | 1013.2 |
| 20260506175211 | 79 | 161 | 4.3 | 0.0 | 0.00 | 0.00 | 0.00 | 82 | 1013.5 |
| 20260506174712 | 79 | 337 | 5.2 | 0.0 | 0.00 | 0.00 | 0.00 | 82 | 1013.5 |
| 20260506174214 | 79 | 143 | 3.5 | 0.0 | 0.00 | 0.00 | 0.00 | 83 | 1013.5 |
| 20260506173713 | 79 | 211 | 5.2 | 0.0 | 0.00 | 0.00 | 0.00 | 83 | 1013.5 |
| 20260506173213 | 79 | 168 | 4.3 | 0.0 | 0.00 | 0.00 | 0.00 | 84 | 1013.5 |
| 20260506172724 | 78 | 256 | 3.5 | 0.0 | 0.00 | 0.00 | 0.00 | 86 | 1013.5 |
| 20260506172222 | 78 | 263 | 5.2 | 0.0 | 0.00 | 0.00 | 0.00 | 86 | 1013.5 |
| 20260506171722 | 78 | 143 | 2.6 | 0.0 | 0.00 | 0.00 | 0.00 | 87 | 1013.5 |
| 20260506171225 | 78 | 221 | 3.5 | 0.0 | 0.00 | 0.00 | 0.00 | 88 | 1013.5 |
| 20260506170722 | 77 | 238 | 1.7 | 0.0 | 0.00 | 0.00 | 0.00 | 88 | 1013.5 |
| 20260506170222 | 77 | 155 | 3.5 | 0.0 | 0.00 | 0.00 | 0.00 | 88 | 1013.5 |
| 20260506165722 | 77 | 144 | 3.5 | 0.0 | 0.00 | 0.00 | 0.00 | 89 | 1013.5 |
| 20260506165223 | 77 | 204 | 1.7 | 0.0 | 0.00 | 0.00 | 0.00 | 90 | 1013.9 |
| 20260506164722 | 77 | 158 | 3.5 | 0.0 | 0.00 | 0.00 | 0.00 | 89 | 1013.5 |
| 20260506164223 | 77 | 145 | 2.6 | 0.0 | 0.00 | 0.00 | 0.00 | 90 | 1013.5 |
| 20260506163721 | 76 | 118 | 3.5 | 0.0 | 0.00 | 0.00 | 0.00 | 90 | 1013.5 |
| 20260506163221 | 76 | 163 | 2.6 | 0.0 | 0.00 | 0.00 | 0.00 | 91 | 1013.5 |
| 20260506162719 | 76 | 213 | 1.7 | 0.0 | 0.00 | 0.00 | 0.00 | 92 | 1013.5 |
| 20260506162220 | 76 | 174 | 2.6 | 0.0 | 0.00 | 0.00 | 0.00 | 92 | 1013.5 |
| 20260506161721 | 76 | 235 | 0.0 | 0.0 | 0.00 | 0.00 | 0.00 | 93 | 1013.5 |
| 20260506161220 | 75 | 190 | 0.0 | 0.0 | 0.00 | 0.00 | 0.00 | 93 | 1013.5 |
| 20260506160719 | 75 | 195 | 0.9 | 0.0 | 0.00 | 0.00 | 0.00 | 93 | 1013.5 |
| 20260506160220 | 75 | 152 | 0.0 | 0.0 | 0.00 | 0.00 | 0.00 | 94 | 1013.2 |
| 20260506155719 | 75 | 196 | 0.0 | 0.0 | 0.00 | 0.00 | 0.00 | 94 | 1013.2 |
| 20260506155220 | 75 | 123 | 1.7 | 0.0 | 0.00 | 0.00 | 0.00 | 94 | 1013.2 |
| 20260506154721 | 75 | 136 | 1.7 | 0.0 | 0.00 | 0.00 | 0.00 | 94 | 1013.2 |
| 20260506154219 | 75 | 158 | 1.7 | 0.0 | 0.00 | 0.00 | 0.00 | 94 | 1013.2 |
| 20260506153719 | 75 | 280 | 0.0 | 0.0 | 0.00 | 0.00 | 0.00 | 94 | 1013.2 |
| 20260506153219 | 74 | 220 | 0.0 | 0.0 | 0.00 | 0.00 | 0.00 | 94 | 1013.2 |
| 20260506152718 | 75 | 227 | 0.0 | 0.0 | 0.00 | 0.00 | 0.00 | 94 | 1012.9 |
| 20260506152218 | 75 | 215 | 0.0 | 0.0 | 0.00 | 0.00 | 0.00 | 94 | 1012.9 |
| 20260506151720 | 75 | 212 | 0.0 | 0.0 | 0.00 | 0.00 | 0.00 | 94 | 1012.9 |
| 20260506151218 | 75 | 278 | 0.0 | 0.0 | 0.00 | 0.00 | 0.00 | 94 | 1012.9 |
| 20260506150718 | 74 | 221 | 0.0 | 0.0 | 0.00 | 0.00 | 0.00 | 94 | 1012.5 |
| 20260506150218 | 74 | 168 | 0.0 | 0.0 | 0.00 | 0.00 | 0.00 | 93 | 1012.5 |
| 20260506145717 | 75 | 212 | 0.0 | 0.0 | 0.00 | 0.00 | 0.00 | 93 | 1012.5 |
| 20260506145218 | 75 | 233 | 0.0 | 0.0 | 0.00 | 0.00 | 0.00 | 93 | 1012.5 |
| 20260506144717 | 74 | 207 | 0.0 | 0.0 | 0.00 | 0.00 | 0.00 | 93 | 1012.9 |
| 20260506144216 | 74 | 202 | 0.0 | 0.0 | 0.00 | 0.00 | 0.00 | 93 | 1012.9 |
| 20260506143719 | 74 | 226 | 1.7 | 0.0 | 0.00 | 0.00 | 0.00 | 93 | 1012.9 |
| 20260506143217 | 74 | 286 | 1.7 | 0.0 | 0.00 | 0.00 | 0.00 | 93 | 1012.5 |
| 20260506142718 | 74 | 242 | 0.0 | 0.0 | 0.00 | 0.00 | 0.00 | 93 | 1012.5 |
| 20260506142216 | 74 | 187 | 0.0 | 0.0 | 0.00 | 0.00 | 0.00 | 94 | 1012.2 |
| 20260506141717 | 74 | 213 | 0.0 | 0.0 | 0.00 | 0.00 | 0.00 | 94 | 1012.2 |
| 20260506141215 | 74 | 186 | 0.0 | 0.0 | 0.00 | 0.00 | 0.00 | 94 | 1012.2 |
| 20260506140716 | 74 | 130 | 1.7 | 0.0 | 0.00 | 0.00 | 0.00 | 94 | 1012.2 |
| 20260506140216 | 74 | 176 | 0.0 | 0.0 | 0.00 | 0.00 | 0.00 | 94 | 1011.9 |
| 20260506135716 | 74 | 197 | 0.0 | 0.0 | 0.00 | 0.00 | 0.00 | 94 | 1011.9 |
| 20260506135215 | 74 | 183 | 2.6 | 0.0 | 0.00 | 0.00 | 0.00 | 94 | 1011.9 |
| 20260506134716 | 74 | 156 | 2.6 | 0.0 | 0.00 | 0.00 | 0.00 | 94 | 1011.5 |
| 20260506134216 | 74 | 149 | 3.5 | 0.0 | 0.00 | 0.00 | 0.00 | 94 | 1011.5 |
| 20260506133716 | 74 | 195 | 3.5 | 0.0 | 0.00 | 0.00 | 0.00 | 94 | 1011.5 |
| 20260506133216 | 74 | 183 | 0.0 | 0.0 | 0.00 | 0.00 | 0.00 | 94 | 1011.5 |
| 20260506132714 | 74 | 180 | 0.0 | 0.0 | 0.00 | 0.00 | 0.00 | 95 | 1011.2 |
| 20260506132213 | 74 | 204 | 3.5 | 0.0 | 0.00 | 0.00 | 0.00 | 94 | 1011.2 |
| 20260506131714 | 74 | 139 | 2.6 | 0.0 | 0.00 | 0.00 | 0.00 | 95 | 1011.2 |
| 20260506131216 | 74 | 168 | 2.6 | 0.0 | 0.00 | 0.00 | 0.00 | 95 | 1011.2 |
| 20260506130713 | 74 | 81 | 2.6 | 0.0 | 0.00 | 0.00 | 0.00 | 94 | 1011.2 |
| 20260506130216 | 74 | 121 | 1.7 | 0.0 | 0.00 | 0.00 | 0.00 | 95 | 1010.8 |
| 20260506125713 | 74 | 123 | 1.7 | 0.0 | 0.00 | 0.00 | 0.00 | 94 | 1010.8 |
| 20260506125212 | 74 | 142 | 0.9 | 0.0 | 0.00 | 0.00 | 0.00 | 94 | 1010.8 |
| 20260506124711 | 74 | 159 | 1.7 | 0.0 | 0.00 | 0.00 | 0.00 | 94 | 1010.8 |
| 20260506124211 | 74 | 173 | 2.6 | 0.0 | 0.00 | 0.00 | 0.00 | 94 | 1010.8 |
| 20260506123712 | 74 | 201 | 2.6 | 0.0 | 0.00 | 0.00 | 0.00 | 94 | 1010.8 |
| 20260506123212 | 74 | 159 | 0.0 | 0.0 | 0.00 | 0.00 | 0.00 | 94 | 1010.8 |
| 20260506122717 | 73 | 128 | 0.0 | 0.0 | 0.00 | 0.00 | 0.00 | 94 | 1010.8 |
| 20260506122211 | 74 | 181 | 0.0 | 0.0 | 0.00 | 0.00 | 0.00 | 94 | 1011.2 |
| 20260506121717 | 74 | 172 | 2.6 | 0.0 | 0.00 | 0.00 | 0.00 | 94 | 1011.2 |
| 20260506121214 | 74 | 147 | 2.6 | 0.0 | 0.00 | 0.00 | 0.00 | 94 | 1011.2 |
| 20260506120711 | 74 | 200 | 0.0 | 0.0 | 0.00 | 0.00 | 0.00 | 94 | 1011.2 |
| 20260506120214 | 74 | 148 | 0.0 | 0.0 | 0.00 | 0.00 | 0.00 | 94 | 1010.8 |
| 20260506115713 | 74 | 167 | 0.0 | 0.0 | 0.00 | 0.00 | 0.00 | 94 | 1010.8 |
| 20260506115210 | 74 | 217 | 0.0 | 0.0 | 0.00 | 0.00 | 0.00 | 94 | 1010.8 |
| 20260506114713 | 74 | 188 | 0.0 | 0.0 | 0.00 | 0.00 | 0.00 | 94 | 1010.8 |
| 20260506114212 | 74 | 175 | 0.0 | 0.0 | 0.00 | 0.00 | 0.00 | 94 | 1011.2 |
| 20260506113713 | 74 | 194 | 0.0 | 0.0 | 0.00 | 0.00 | 0.00 | 94 | 1010.8 |
| 20260506113212 | 74 | 146 | 0.0 | 0.0 | 0.00 | 0.00 | 0.00 | 94 | 1010.8 |
| 20260506112710 | 74 | 176 | 2.6 | 0.0 | 0.00 | 0.00 | 0.00 | 94 | 1010.8 |
| 20260506112211 | 74 | 196 | 0.0 | 0.0 | 0.00 | 0.00 | 0.00 | 94 | 1011.2 |
| 20260506111711 | 74 | 189 | 0.0 | 0.0 | 0.00 | 0.00 | 0.00 | 94 | 1011.2 |
| 20260506111214 | 74 | 226 | 0.0 | 0.0 | 0.00 | 0.00 | 0.00 | 94 | 1011.2 |
| 20260506110712 | 74 | 219 | 0.0 | 0.0 | 0.00 | 0.00 | 0.00 | 94 | 1010.8 |
| 20260506110211 | 74 | 173 | 0.0 | 0.0 | 0.00 | 0.00 | 0.00 | 94 | 1010.8 |
| 20260506105710 | 73 | 205 | 0.0 | 0.0 | 0.00 | 0.00 | 0.00 | 94 | 1010.8 |
| 20260506105212 | 74 | 190 | 0.0 | 0.0 | 0.00 | 0.00 | 0.00 | 94 | 1010.8 |
| 20260506104712 | 74 | 190 | 0.0 | 0.0 | 0.00 | 0.00 | 0.00 | 94 | 1010.8 |
| 20260506104210 | 74 | 191 | 0.0 | 0.0 | 0.00 | 0.00 | 0.00 | 94 | 1010.8 |
| 20260506103711 | 74 | 188 | 2.6 | 0.0 | 0.00 | 0.00 | 0.00 | 94 | 1010.8 |
| 20260506103211 | 73 | 121 | 2.6 | 0.0 | 0.00 | 0.00 | 0.00 | 94 | 1010.8 |
| 20260506102713 | 74 | 116 | 2.6 | 0.0 | 0.00 | 0.00 | 0.00 | 94 | 1010.8 |
| 20260506102212 | 74 | 222 | 1.7 | 0.0 | 0.00 | 0.00 | 0.00 | 94 | 1010.8 |
| 20260506101713 | 74 | 220 | 1.7 | 0.0 | 0.00 | 0.00 | 0.00 | 94 | 1010.8 |
| 20260506101210 | 74 | 191 | 1.7 | 0.0 | 0.00 | 0.00 | 0.00 | 94 | 1010.8 |
| 20260506100710 | 74 | 169 | 2.6 | 0.0 | 0.00 | 0.00 | 0.00 | 94 | 1010.8 |
| 20260506100214 | 74 | 180 | 3.5 | 0.0 | 0.00 | 0.00 | 0.00 | 94 | 1010.8 |
| 20260506095829 | 74 | 136 | 4.3 | 0.0 | 0.00 | 0.00 | 0.00 | 94 | 1010.8 |
| 20260506094731 | 74 | 184 | 3.5 | 0.0 | 0.00 | 0.00 | 0.00 | 94 | 1010.8 |
| 20260506094229 | 74 | 196 | 3.5 | 0.0 | 0.00 | 0.00 | 0.00 | 93 | 1010.8 |
| 20260506093729 | 74 | 120 | 2.6 | 0.0 | 0.00 | 0.00 | 0.00 | 93 | 1010.8 |
| 20260506093228 | 74 | 242 | 4.3 | 0.0 | 0.00 | 0.00 | 0.00 | 93 | 1010.8 |
| 20260506092727 | 74 | 198 | 1.7 | 0.0 | 0.00 | 0.00 | 0.00 | 93 | 1010.8 |
| 20260506092227 | 74 | 196 | 3.5 | 0.0 | 0.00 | 0.00 | 0.00 | 93 | 1010.8 |
| 20260506091728 | 74 | 320 | 4.3 | 0.0 | 0.00 | 0.00 | 0.00 | 93 | 1010.5 |
| 20260506091230 | 74 | 93 | 6.1 | 0.0 | 0.00 | 0.00 | 0.00 | 93 | 1010.5 |
| 20260506090729 | 74 | 163 | 3.5 | 0.0 | 0.00 | 0.00 | 0.00 | 93 | 1010.5 |
| 20260506090228 | 74 | 153 | 3.5 | 0.0 | 0.00 | 0.00 | 0.00 | 93 | 1010.5 |
| 20260506085727 | 74 | 140 | 3.5 | 0.0 | 0.00 | 0.00 | 0.00 | 92 | 1010.5 |
| 20260506085226 | 74 | 106 | 3.5 | 0.0 | 0.00 | 0.00 | 0.00 | 92 | 1010.5 |
| 20260506084727 | 74 | 104 | 7.8 | 0.0 | 0.00 | 0.00 | 0.00 | 92 | 1010.5 |
| 20260506084226 | 74 | 137 | 6.1 | 0.0 | 0.00 | 0.00 | 0.00 | 92 | 1010.5 |
| 20260506083727 | 74 | 135 | 4.3 | 0.0 | 0.00 | 0.00 | 0.00 | 92 | 1010.5 |
| 20260506083225 | 74 | 166 | 6.1 | 0.0 | 0.00 | 0.00 | 0.00 | 92 | 1010.5 |
| 20260506082727 | 74 | 116 | 4.3 | 0.0 | 0.00 | 0.00 | 0.00 | 92 | 1010.5 |
| 20260506082225 | 74 | 134 | 5.2 | 0.0 | 0.00 | 0.00 | 0.00 | 92 | 1010.8 |
| 20260506081727 | 74 | 146 | 3.5 | 0.0 | 0.00 | 0.00 | 0.00 | 92 | 1010.8 |
| 20260506081225 | 74 | 166 | 3.5 | 0.0 | 0.00 | 0.00 | 0.00 | 91 | 1010.8 |
| 20260506080728 | 75 | 191 | 3.5 | 0.0 | 0.00 | 0.00 | 0.00 | 91 | 1010.8 |
| 20260506080227 | 74 | 123 | 4.3 | 0.0 | 0.00 | 0.00 | 0.00 | 91 | 1010.8 |
| 20260506073226 | 75 | 113 | 5.2 | 0.0 | 0.00 | 0.00 | 0.00 | 91 | 1011.2 |
| 20260506072723 | 75 | 193 | 2.6 | 0.0 | 0.00 | 0.00 | 0.00 | 91 | 1011.2 |
| 20260506072223 | 75 | 215 | 3.5 | 0.0 | 0.00 | 0.00 | 0.00 | 91 | 1011.2 |
| 20260506071723 | 75 | 98 | 2.6 | 0.0 | 0.00 | 0.00 | 0.00 | 91 | 1011.2 |
| 20260506071222 | 75 | 138 | 3.5 | 0.0 | 0.00 | 0.00 | 0.00 | 91 | 1011.2 |
| 20260506070722 | 75 | 196 | 3.5 | 0.0 | 0.00 | 0.00 | 0.00 | 91 | 1011.2 |
| 20260506070224 | 75 | 195 | 3.5 | 0.0 | 0.00 | 0.00 | 0.00 | 91 | 1011.2 |
| 20260506062221 | 75 | 278 | 3.5 | 0.0 | 0.00 | 0.00 | 0.00 | 91 | 1011.2 |
| 20260506061722 | 75 | 123 | 6.1 | 0.0 | 0.00 | 0.00 | 0.00 | 91 | 1011.2 |
| 20260506061221 | 75 | 99 | 3.5 | 0.0 | 0.00 | 0.00 | 0.00 | 90 | 1011.2 |
| 20260506060722 | 75 | 154 | 3.5 | 0.0 | 0.00 | 0.00 | 0.00 | 90 | 1011.2 |
| 20260506060220 | 75 | 75 | 3.5 | 0.0 | 0.00 | 0.00 | 0.00 | 90 | 1011.2 |
| 20260506051218 | 76 | 76 | 4.3 | 0.0 | 0.00 | 0.00 | 0.00 | 89 | 1011.2 |
| 20260506050721 | 76 | 209 | 3.5 | 0.0 | 0.00 | 0.00 | 0.00 | 89 | 1011.2 |
| 20260506050218 | 76 | 101 | 6.1 | 0.0 | 0.00 | 0.00 | 0.00 | 89 | 1011.2 |
| 20260506044718 | 76 | 106 | 2.6 | 0.0 | 0.00 | 0.00 | 0.00 | 88 | 1010.8 |
| 20260506044217 | 76 | 133 | 3.5 | 0.0 | 0.00 | 0.00 | 0.00 | 88 | 1011.2 |
| 20260506043717 | 76 | 120 | 3.5 | 0.0 | 0.00 | 0.00 | 0.00 | 88 | 1011.2 |
| 20260506043217 | 77 | 110 | 4.3 | 0.0 | 0.00 | 0.00 | 0.00 | 88 | 1011.2 |
| 20260506042717 | 77 | 122 | 3.5 | 0.0 | 0.00 | 0.00 | 0.00 | 88 | 1010.8 |
| 20260506042215 | 77 | 153 | 2.6 | 0.0 | 0.00 | 0.00 | 0.00 | 88 | 1011.2 |
| 20260506041717 | 77 | 191 | 3.5 | 0.0 | 0.00 | 0.00 | 0.00 | 88 | 1010.8 |
| 20260506041217 | 77 | 189 | 2.6 | 0.0 | 0.00 | 0.00 | 0.00 | 88 | 1010.8 |
| 20260506040717 | 77 | 140 | 4.3 | 0.0 | 0.00 | 0.00 | 0.00 | 88 | 1010.8 |
| 20260506040218 | 77 | 61 | 4.3 | 0.0 | 0.00 | 0.00 | 0.00 | 88 | 1010.8 |
| 20260506035718 | 77 | 126 | 6.1 | 0.0 | 0.00 | 0.00 | 0.00 | 88 | 1010.8 |
| 20260506035215 | 77 | 142 | 4.3 | 0.0 | 0.00 | 0.00 | 0.00 | 88 | 1010.8 |
| 20260506034716 | 77 | 171 | 3.5 | 0.0 | 0.00 | 0.00 | 0.00 | 88 | 1010.5 |
| 20260506034216 | 77 | 173 | 2.6 | 0.0 | 0.00 | 0.00 | 0.00 | 88 | 1010.5 |
| 20260506033715 | 77 | 162 | 3.5 | 0.0 | 0.00 | 0.00 | 0.00 | 87 | 1010.5 |
| 20260506033217 | 77 | 147 | 5.2 | 0.0 | 0.00 | 0.00 | 0.00 | 87 | 1010.5 |
| 20260506032714 | 78 | 103 | 6.1 | 0.0 | 0.00 | 0.00 | 0.00 | 87 | 1010.5 |
| 20260506032213 | 78 | 178 | 4.3 | 0.0 | 0.00 | 0.00 | 0.00 | 86 | 1010.2 |
| 20260506031715 | 78 | 120 | 3.5 | 0.0 | 0.00 | 0.00 | 0.00 | 86 | 1010.2 |
| 20260506031214 | 78 | 188 | 2.6 | 0.0 | 0.00 | 0.00 | 0.00 | 86 | 1010.2 |
| 20260506030713 | 78 | 159 | 1.7 | 0.0 | 0.00 | 0.00 | 0.00 | 85 | 1009.8 |
| 20260506030216 | 78 | 171 | 3.5 | 0.0 | 0.00 | 0.00 | 0.00 | 85 | 1009.8 |
| 20260506025714 | 78 | 121 | 2.6 | 0.0 | 0.00 | 0.00 | 0.00 | 85 | 1009.8 |
| 20260506025213 | 79 | 207 | 3.5 | 0.0 | 0.00 | 0.00 | 0.00 | 84 | 1009.8 |
| 20260506024713 | 79 | 64 | 4.3 | 0.0 | 0.00 | 0.00 | 0.00 | 84 | 1009.8 |
| 20260506024214 | 79 | 128 | 3.5 | 0.0 | 0.00 | 0.00 | 0.00 | 84 | 1009.8 |
| 20260506023714 | 79 | 193 | 3.5 | 0.0 | 0.00 | 0.00 | 0.00 | 83 | 1009.5 |
| 20260506023216 | 79 | 133 | 3.5 | 0.0 | 0.00 | 0.00 | 0.00 | 83 | 1009.5 |
| 20260506022713 | 79 | 194 | 3.5 | 0.0 | 0.00 | 0.00 | 0.00 | 82 | 1009.5 |
| 20260506022214 | 79 | 125 | 3.5 | 0.0 | 0.00 | 0.00 | 0.00 | 82 | 1009.5 |
| 20260506021713 | 79 | 170 | 2.6 | 0.0 | 0.00 | 0.00 | 0.00 | 82 | 1009.1 |
| 20260506021212 | 79 | 188 | 2.6 | 0.0 | 0.00 | 0.00 | 0.00 | 82 | 1009.1 |
| 20260506020713 | 79 | 148 | 2.6 | 0.0 | 0.00 | 0.00 | 0.00 | 82 | 1009.5 |
| 20260506020213 | 79 | 162 | 3.5 | 0.0 | 0.00 | 0.00 | 0.00 | 82 | 1009.1 |
| 20260506015710 | 79 | 219 | 2.6 | 0.0 | 0.00 | 0.00 | 0.00 | 82 | 1009.1 |
| 20260506015210 | 79 | 197 | 2.6 | 0.0 | 0.00 | 0.00 | 0.00 | 82 | 1009.1 |
| 20260506014715 | 79 | 179 | 3.5 | 0.0 | 0.00 | 0.00 | 0.00 | 82 | 1008.8 |
| 20260506014212 | 79 | 199 | 2.6 | 0.0 | 0.00 | 0.00 | 0.00 | 82 | 1008.8 |
| 20260506013711 | 80 | 163 | 2.6 | 0.0 | 0.00 | 0.00 | 0.00 | 82 | 1008.8 |
| 20260506013213 | 80 | 141 | 2.6 | 0.0 | 0.00 | 0.00 | 0.00 | 82 | 1008.8 |
| 20260506012709 | 80 | 143 | 1.7 | 0.0 | 0.00 | 0.00 | 0.00 | 82 | 1008.8 |
| 20260506012214 | 80 | 112 | 1.7 | 0.0 | 0.00 | 0.00 | 0.00 | 81 | 1008.8 |
| 20260506011711 | 80 | 150 | 0.0 | 0.0 | 0.00 | 0.00 | 0.00 | 81 | 1008.8 |
| 20260506011209 | 81 | 169 | 0.0 | 0.0 | 0.00 | 0.00 | 0.00 | 81 | 1008.8 |
| 20260506010714 | 81 | 175 | 0.0 | 0.0 | 0.00 | 0.00 | 0.00 | 79 | 1008.8 |
| 20260506010212 | 81 | 187 | 0.0 | 0.0 | 0.00 | 0.00 | 0.00 | 79 | 1008.5 |
| 20260506005713 | 81 | 187 | 0.9 | 0.0 | 0.00 | 0.00 | 0.00 | 78 | 1008.5 |
| 20260506005210 | 82 | 178 | 1.7 | 0.0 | 0.00 | 0.00 | 0.00 | 77 | 1008.5 |
| 20260506004717 | 82 | 207 | 1.7 | 0.0 | 0.00 | 0.00 | 0.00 | 77 | 1008.5 |
| 20260506004214 | 82 | 175 | 0.0 | 0.0 | 0.00 | 0.00 | 0.00 | 77 | 1008.5 |
| 20260506003710 | 82 | 201 | 1.7 | 0.0 | 0.00 | 0.00 | 0.00 | 77 | 1008.5 |
| 20260506003210 | 82 | 202 | 1.7 | 0.0 | 0.00 | 0.00 | 0.00 | 77 | 1008.5 |
| 20260506002712 | 82 | 182 | 0.0 | 0.0 | 0.00 | 0.00 | 0.00 | 77 | 1008.5 |
| 20260506002215 | 83 | 186 | 0.0 | 0.0 | 0.00 | 0.00 | 0.00 | 76 | 1008.5 |
| 20260506001711 | 83 | 189 | 1.7 | 0.0 | 0.00 | 0.00 | 0.00 | 75 | 1008.5 |
| 20260506001213 | 83 | 182 | 0.0 | 0.0 | 0.00 | 0.00 | 0.00 | 74 | 1008.5 |
| 20260506000711 | 83 | 197 | 0.0 | 0.0 | 0.00 | 0.00 | 0.00 | 73 | 1008.1 |
| 20260506000312 | 83 | 187 | 1.7 | 0.0 | 0.00 | 0.00 | 0.00 | 73 | 1008.5 |
| 20260505235213 | 84 | 190 | 0.9 | 0.0 | 0.00 | 0.00 | 0.00 | 72 | 1008.5 |
| 20260505234713 | 84 | 197 | 0.0 | 0.0 | 0.00 | 0.00 | 0.00 | 71 | 1008.5 |
| 20260505234212 | 84 | 199 | 0.0 | 0.0 | 0.00 | 0.00 | 0.00 | 71 | 1008.5 |
| 20260505233712 | 84 | 186 | 1.7 | 0.0 | 0.00 | 0.00 | 0.00 | 70 | 1008.5 |
| 20260505233213 | 84 | 159 | 2.6 | 0.0 | 0.00 | 0.00 | 0.00 | 69 | 1008.5 |
| 20260505232712 | 84 | 266 | 6.1 | 0.0 | 0.00 | 0.00 | 0.00 | 70 | 1008.5 |
| 20260505232211 | 85 | 133 | 3.5 | 0.0 | 0.00 | 0.00 | 0.00 | 69 | 1008.5 |
| 20260505231710 | 85 | 176 | 3.5 | 0.0 | 0.00 | 0.00 | 0.00 | 68 | 1008.5 |
| 20260505231211 | 85 | 177 | 0.9 | 0.0 | 0.00 | 0.00 | 0.00 | 70 | 1008.5 |
| 20260505230710 | 85 | 152 | 2.6 | 0.0 | 0.00 | 0.00 | 0.00 | 68 | 1008.1 |
| 20260505230212 | 85 | 254 | 3.5 | 0.0 | 0.00 | 0.00 | 0.00 | 68 | 1008.1 |
| 20260505225714 | 85 | 96 | 3.5 | 0.0 | 0.00 | 0.00 | 0.00 | 68 | 1008.1 |
| 20260505225211 | 85 | 104 | 3.5 | 0.0 | 0.00 | 0.00 | 0.00 | 68 | 1008.5 |
| 20260505224713 | 85 | 179 | 2.6 | 0.0 | 0.00 | 0.00 | 0.00 | 69 | 1008.5 |
| 20260505224214 | 85 | 135 | 3.5 | 0.0 | 0.00 | 0.00 | 0.00 | 69 | 1008.1 |
| 20260505223713 | 85 | 241 | 2.6 | 0.0 | 0.00 | 0.00 | 0.00 | 68 | 1008.5 |
| 20260505223212 | 85 | 309 | 2.6 | 0.0 | 0.00 | 0.00 | 0.00 | 68 | 1008.5 |
| 20260505222711 | 85 | 126 | 4.3 | 0.0 | 0.00 | 0.00 | 0.00 | 68 | 1008.5 |
| 20260505222212 | 85 | 126 | 4.3 | 0.0 | 0.00 | 0.00 | 0.00 | 68 | 1008.5 |
| 20260505221712 | 85 | 229 | 3.5 | 0.0 | 0.00 | 0.00 | 0.00 | 68 | 1008.5 |
| 20260505221211 | 85 | 92 | 5.2 | 0.0 | 0.00 | 0.00 | 0.00 | 68 | 1008.5 |
| 20260505220712 | 85 | 113 | 5.2 | 0.0 | 0.00 | 0.00 | 0.00 | 67 | 1008.5 |
| 20260505220211 | 85 | 134 | 2.6 | 0.0 | 0.00 | 0.00 | 0.00 | 68 | 1008.5 |
| 20260505215713 | 85 | 114 | 4.3 | 0.0 | 0.00 | 0.00 | 0.00 | 69 | 1008.5 |
| 20260505215210 | 85 | 265 | 4.3 | 0.0 | 0.00 | 0.00 | 0.00 | 67 | 1008.5 |
| 20260505214711 | 85 | 325 | 5.2 | 0.0 | 0.00 | 0.00 | 0.00 | 67 | 1008.8 |
| 20260505214211 | 85 | 126 | 5.2 | 0.0 | 0.00 | 0.00 | 0.00 | 68 | 1008.8 |
| 20260505213713 | 85 | 134 | 6.1 | 0.0 | 0.00 | 0.00 | 0.00 | 68 | 1008.8 |
| 20260505213214 | 85 | 160 | 4.3 | 0.0 | 0.00 | 0.00 | 0.00 | 67 | 1008.8 |
| 20260505212713 | 86 | 154 | 6.1 | 0.0 | 0.00 | 0.00 | 0.00 | 66 | 1008.8 |
| 20260505212214 | 86 | 56 | 7.0 | 0.0 | 0.00 | 0.00 | 0.00 | 67 | 1008.8 |
| 20260505211712 | 86 | 68 | 5.2 | 0.0 | 0.00 | 0.00 | 0.00 | 68 | 1009.1 |
| 20260505211211 | 86 | 256 | 3.5 | 0.0 | 0.00 | 0.00 | 0.00 | 68 | 1009.1 |
| 20260505210711 | 86 | 208 | 5.2 | 0.0 | 0.00 | 0.00 | 0.00 | 67 | 1009.1 |
| 20260505210211 | 86 | 182 | 3.5 | 0.0 | 0.00 | 0.00 | 0.00 | 68 | 1009.1 |
| 20260505205712 | 86 | 259 | 3.5 | 0.0 | 0.00 | 0.00 | 0.00 | 69 | 1009.5 |
| 20260505205209 | 85 | 101 | 2.6 | 0.0 | 0.00 | 0.00 | 0.00 | 69 | 1009.5 |
| 20260505204712 | 85 | 137 | 5.2 | 0.0 | 0.00 | 0.00 | 0.00 | 69 | 1009.5 |
| 20260505204209 | 85 | 207 | 5.2 | 0.0 | 0.00 | 0.00 | 0.00 | 70 | 1009.5 |
| 20260505203712 | 84 | 110 | 7.0 | 0.0 | 0.00 | 0.00 | 0.00 | 70 | 1009.5 |
| 20260505203214 | 84 | 129 | 4.3 | 0.0 | 0.00 | 0.00 | 0.00 | 71 | 1009.8 |
| 20260505202711 | 84 | 170 | 6.1 | 0.0 | 0.00 | 0.00 | 0.00 | 70 | 1009.8 |
| 20260505202211 | 85 | 112 | 2.6 | 0.0 | 0.00 | 0.00 | 0.00 | 71 | 1009.8 |
| 20260505201710 | 85 | 180 | 4.3 | 0.0 | 0.00 | 0.00 | 0.00 | 69 | 1009.8 |
| 20260505201212 | 85 | 102 | 3.5 | 0.0 | 0.00 | 0.00 | 0.00 | 70 | 1009.8 |
| 20260505200710 | 85 | 255 | 4.3 | 0.0 | 0.00 | 0.00 | 0.00 | 70 | 1010.2 |
| 20260505200213 | 85 | 122 | 5.2 | 0.0 | 0.00 | 0.00 | 0.00 | 70 | 1009.8 |
| 20260505195714 | 84 | 156 | 5.2 | 0.0 | 0.00 | 0.00 | 0.00 | 70 | 1010.2 |
| 20260505195214 | 84 | 133 | 5.2 | 0.0 | 0.00 | 0.00 | 0.00 | 73 | 1010.2 |
| 20260505194712 | 83 | 333 | 6.1 | 0.0 | 0.00 | 0.00 | 0.00 | 71 | 1010.2 |
| 20260505194215 | 83 | 203 | 4.3 | 0.0 | 0.00 | 0.00 | 0.00 | 72 | 1010.5 |
| 20260505193710 | 83 | 45 | 3.5 | 0.0 | 0.00 | 0.00 | 0.00 | 73 | 1010.5 |
| 20260505193213 | 83 | 82 | 3.5 | 0.0 | 0.00 | 0.00 | 0.00 | 71 | 1010.5 |
| 20260505192713 | 83 | 338 | 4.3 | 0.0 | 0.00 | 0.00 | 0.00 | 72 | 1010.5 |
| 20260505192212 | 83 | 216 | 3.5 | 0.0 | 0.00 | 0.00 | 0.00 | 71 | 1010.5 |
| 20260505191710 | 83 | 126 | 2.6 | 0.0 | 0.00 | 0.00 | 0.00 | 71 | 1010.5 |
| 20260505191213 | 83 | 149 | 3.5 | 0.0 | 0.00 | 0.00 | 0.00 | 72 | 1010.5 |
| 20260505190711 | 83 | 340 | 4.3 | 0.0 | 0.00 | 0.00 | 0.00 | 74 | 1010.5 |
| 20260505190215 | 82 | 164 | 5.2 | 0.0 | 0.00 | 0.00 | 0.00 | 74 | 1010.5 |
| 20260505185714 | 82 | 120 | 3.5 | 0.0 | 0.00 | 0.00 | 0.00 | 74 | 1010.8 |
| 20260505185215 | 82 | 133 | 2.6 | 0.0 | 0.00 | 0.00 | 0.00 | 73 | 1010.8 |
| 20260505184711 | 81 | 274 | 5.2 | 0.0 | 0.00 | 0.00 | 0.00 | 74 | 1011.2 |
| 20260505184210 | 81 | 147 | 3.5 | 0.0 | 0.00 | 0.00 | 0.00 | 75 | 1011.2 |
| 20260505183714 | 81 | 160 | 4.3 | 0.0 | 0.00 | 0.00 | 0.00 | 77 | 1011.2 |
| 20260505183211 | 80 | 88 | 2.6 | 0.0 | 0.00 | 0.00 | 0.00 | 77 | 1011.2 |
| 20260505182712 | 80 | 122 | 3.5 | 0.0 | 0.00 | 0.00 | 0.00 | 77 | 1011.2 |
| 20260505182213 | 80 | 115 | 2.6 | 0.0 | 0.00 | 0.00 | 0.00 | 77 | 1011.2 |
| 20260505181713 | 80 | 173 | 3.5 | 0.0 | 0.00 | 0.00 | 0.00 | 77 | 1011.5 |
| 20260505181214 | 80 | 131 | 2.6 | 0.0 | 0.00 | 0.00 | 0.00 | 78 | 1011.2 |
| 20260505180711 | 80 | 235 | 2.6 | 0.0 | 0.00 | 0.00 | 0.00 | 78 | 1011.2 |
| 20260505180215 | 79 | 249 | 3.5 | 0.0 | 0.00 | 0.00 | 0.00 | 80 | 1011.5 |